Weather History for Millville, NJ

Change the Weather History Date:

Wednesday, November 21, 2012

  Actual Average Record
Temperature  
Mean Temperature 41 °F -  
Max Temperature 54 °F 51 °F 74 °F (1991)
Min Temperature 28 °F 33 °F 17 °F (2014)
Degree Days  
Heating Degree Days 24    
Moisture  
Dew Point 32 °F    
Average Humidity 72    
Maximum Humidity 96    
Minimum Humidity 34    
Precipitation  
Precipitation 0.00 in - - ()
Sea Level Pressure  
Sea Level Pressure 30.17 in    
Wind  
Wind Speed 4 mph (NNE)    
Max Wind Speed 13 mph    
Max Gust Speed 17 mph    
Visibility 10 miles    
Events      
Averages and records for this station are not official NWS values.
T = Trace of Precipitation, MM = Missing Value Source: NWS Daily Summary

Daily Weather History Graph

Daily Weather History Graph

Search for Another Location

Airport:

Trip Planner

Search our weather history database for the weather conditions in past years. The results will help you decide how hot, cold, wet, or windy it might be!

Date:

Astronomy

Nov. 21, 2012 Rise Set
Actual Time 6:51 AM EST 4:41 PM EST
Civil Twilight 6:22 AM EST 5:10 PM EST
Nautical Twilight 5:49 AM EST 5:43 PM EST
Astronomical Twilight 5:17 AM EST 6:15 PM EST
Moon 12:54 PM EST (11/21) 12:09 AM EST (11/21)
Length of Visible Light 10h 48m
Length of Day
9h 49m
First Quarter, 61% of the Moon is Illuminated
Nov 21
First Quarter
Nov 28
Full
Dec 6
Last Quarter
Dec 13
New
Dec 20
First Quarter

Hourly Weather History & Observations

Time (EST) Temp. Windchill Dew Point Humidity Pressure Visibility Wind Dir Wind Speed Gust Speed Precip Events Conditions
12:54 AM 36.0 °F - 33.1 °F 89% 30.12 in 10.0 mi Calm Calm - N/A   Clear
1:54 AM 39.0 °F 36.8 °F 36.0 °F 89% 30.13 in 10.0 mi NNW 3.5 mph - N/A   Clear
2:54 AM 39.0 °F - 35.1 °F 86% 30.12 in 10.0 mi Calm Calm - N/A   Clear
3:54 AM 37.0 °F 34.5 °F 34.0 °F 89% 30.14 in 10.0 mi NNW 3.5 mph - N/A   Partly Cloudy
4:09 AM 37.4 °F - 35.6 °F 93% 30.14 in 10.0 mi Calm Calm - N/A   Mostly Cloudy
4:54 AM 39.9 °F 35.1 °F 35.1 °F 83% 30.15 in 10.0 mi North 6.9 mph - N/A   Overcast
5:12 AM 39.2 °F 35.0 °F 35.6 °F 87% 30.15 in 10.0 mi North 5.8 mph - N/A   Mostly Cloudy
5:54 AM 39.0 °F 35.7 °F 35.1 °F 86% 30.16 in 10.0 mi North 4.6 mph - N/A   Mostly Cloudy
6:54 AM 37.0 °F 33.3 °F 34.0 °F 89% 30.17 in 10.0 mi North 4.6 mph - N/A   Scattered Clouds
7:54 AM 39.9 °F 36.7 °F 35.1 °F 83% 30.18 in 10.0 mi North 4.6 mph - N/A   Clear
8:54 AM 46.0 °F 42.5 °F 36.0 °F 68% 30.18 in 10.0 mi NNE 6.9 mph - N/A   Clear
9:54 AM 48.9 °F - 37.9 °F 66% 30.19 in 10.0 mi NE 8.1 mph - N/A   Clear
10:54 AM 51.1 °F - 37.0 °F 59% 30.19 in 10.0 mi NNE 8.1 mph - N/A   Clear
11:54 AM 53.1 °F - 34.0 °F 48% 30.17 in 10.0 mi North 10.4 mph - N/A   Clear
12:54 PM 54.0 °F - 26.1 °F 34% 30.16 in 10.0 mi NE 12.7 mph - N/A   Clear
1:26 PM 53.6 °F - 26.6 °F 35% 30.16 in 10.0 mi NE 11.5 mph 17.3 mph N/A   Partly Cloudy
1:54 PM 54.0 °F - 27.0 °F 35% 30.15 in 10.0 mi NE 9.2 mph - N/A   Clear
2:54 PM 54.0 °F - 26.1 °F 34% 30.15 in 10.0 mi NE 8.1 mph - N/A   Clear
3:54 PM 52.0 °F - 27.0 °F 38% 30.16 in 10.0 mi NNE 5.8 mph - N/A   Clear
4:54 PM 46.0 °F 44.8 °F 28.9 °F 51% 30.18 in 10.0 mi North 3.5 mph - N/A   Clear
5:54 PM 42.1 °F 40.2 °F 33.1 °F 70% 30.20 in 10.0 mi East 3.5 mph - N/A   Clear
6:54 PM 36.0 °F - 30.0 °F 79% 30.21 in 10.0 mi Calm Calm - N/A   Clear
7:54 PM 32.0 °F - 28.9 °F 88% 30.22 in 10.0 mi Calm Calm - N/A   Clear
8:54 PM 30.0 °F - 28.0 °F 92% 30.21 in 10.0 mi Calm Calm - N/A   Clear
9:54 PM 30.9 °F - 28.0 °F 89% 30.22 in 10.0 mi Calm Calm - N/A   Clear
10:54 PM 28.9 °F - 27.0 °F 92% 30.22 in 10.0 mi Calm Calm - N/A   Clear
11:54 PM 28.0 °F - 27.0 °F 96% 30.22 in 10.0 mi Calm Calm - N/A   Clear